This is the latest recevied weather packets stored in our database for station/object CYFC. If no packets are shown the sender has not sent any weather packets the latest 10 day(s).
| Time | Temp. | Humidity | Pressure | Rain* | Wind** | Luminosity | Snow |
|---|---|---|---|---|---|---|---|
| 1777457000 | 3.89° C | 93% | 1021 hPa | - | - | - | - |
| 1777456401 | 3.89° C | 86% | 1020.7 hPa | - | - | - | - |
| 1777455799 | 3.89° C | 86% | 1020.7 hPa | - | - | - | - |
| 1777455200 | 3.89° C | 86% | 1020.7 hPa | - | - | - | - |
| 1777454597 | 5° C | - | 1020.3 hPa | - | - | - | - |
| 1777453998 | 5° C | - | 1020.3 hPa | - | - | - | - |
| 1777453397 | 5° C | 75% | 1014.6 hPa | - | - | - | - |
| 1777452799 | 5° C | 75% | 1014.6 hPa | - | - | - | - |
| 1777452197 | 5° C | 75% | 1020.3 hPa | - | - | - | - |
| 1777451596 | 5° C | 75% | 1020.3 hPa | - | - | - | - |
| 1777451002 | 3.89° C | 80% | 1020.3 hPa | - | - | - | - |
| 1777450400 | 3.89° C | 80% | 1020.3 hPa | - | - | - | - |
| 1777449801 | 5° C | - | 1020.7 hPa | - | - | - | - |
| 1777449200 | 5° C | - | 1020.7 hPa | - | - | - | - |
| 1777448601 | 5° C | - | 1020.7 hPa | - | - | - | - |
| 1777448000 | 3.89° C | 69% | 1020.3 hPa | - | - | - | - |
| 1777447404 | 3.89° C | 69% | 1020.3 hPa | - | - | - | - |
| 1777446803 | 3.89° C | 69% | 1020.3 hPa | - | - | - | - |
| 1777446200 | 3.89° C | 64% | 1020.7 hPa | - | - | - | - |
| 1777445604 | 3.89° C | 64% | 1020.7 hPa | - | - | - | - |
| 1777445001 | 3.89° C | 64% | 1020.7 hPa | - | - | - | - |
| 1777444404 | 3.89° C | 64% | 1020.7 hPa | - | - | - | - |
| 1777443799 | 3.89° C | 64% | 1020.7 hPa | - | - | - | - |
| 1777443201 | 3.89° C | 64% | 1020.7 hPa | - | - | - | - |
| 1777442600 | 5.56° C | 56% | 1021 hPa | - | - | - | - |
* Rain since midnight (hover to see other rain measurements)
** Current wind speed in m/s (hover to see current wind gust speed)